INTELSAT 29E (IS-29E) (41308 NORAD) Tracking and Keplerian Element Data

This shows tracking and keplerian element data for the satellite.

Feedback or suggestion? Click here.




ElementValue
Catalog41308
NameINTELSAT 29E (IS-29E)
Epoch Orbit1194
Epoch Day111.28313779
Epoch Year2019
RAAN89.8902
Inclination0.0656
Eccentricity0.0031948
Argument of Perigee314.7269
Mean Anonmoly229.3284
Mean Motion1.00593413
Decay Rate-2.3E-06
L11 41308U 16004A 19111.28313779 -.00000230 00000-0 00000+0 0 9995
L22 41308 0.0656 89.8902 0031948 314.7269 229.3284 1.00593413 11949

Live tracking and technical data element details for INTELSAT 29E (IS-29E) (NORAD 41308). INTELSAT 29E (IS-29E) can be tracked NOW for your location showing map with azimuth and elevation plus other details from your city location.

Track the satellite on the map from your city or location and see movement details for azimuth, elevation, latitude, longitude, range, height, and movement on the map or in text.







IsCatalogInMostPopularTable: catalog: 41308, numindb: 399
Update: records affected: 1



GetName: 41308 INTELSAT 29E (IS-29E)

Hit Count: updated at: Tue, 23 Apr 2019 03:03:48 GMT